START_TIME,STEP,MOV.,P11,t_acc.,P23,t_acc.,P27,t_acc.,A4,t_acc.
1979-02-28 21:00:12.550 ,1,0,0.,4.8,0.,4.8,0.,4.8,0.,4.8
1979-02-28 21:00:17.350 ,1,0,1.,4.8,0.,4.8,0.,4.8,0.,4.8
1979-02-28 21:00:22.150 ,1,0,0.,4.8,0.,4.8,0.,4.8,0.,4.8
1979-02-28 21:00:26.950 ,1,0,0.,4.8,0.,4.8,0.,4.8,1.,4.8
1979-02-28 21:00:31.750 ,1,0,0.,4.8,1.,4.8,1.,4.8,0.,4.8
1979-02-28 21:00:36.540 ,2,0,1.,4.8,0.,4.8,1.,4.8,0.,4.8
1979-02-28 21:00:41.350 ,2,0,0.,4.8,0.,4.8,0.,4.8,0.,4.8
1979-02-28 21:00:46.150 ,2,0,1.,4.8,1.,4.8,0.,4.8,0.,4.8
1979-02-28 21:00:50.950 ,2,0,0.,4.8,1.,4.8,0.,4.8,0.,4.8
1979-02-28 21:00:55.750 ,2,0,0.,4.8,0.,4.8,0.,4.8,0.,4.8
1979-02-28 21:01:00.540 ,3,0,1.,4.8,0.,4.8,0.,4.8,0.,4.8
1979-02-28 21:01:05.350 ,3,0,0.,4.8,0.,4.8,0.,4.8,0.,4.8
1979-02-28 21:01:10.150 ,3,0,0.,4.8,0.,4.8,0.,4.8,0.,4.8
1979-02-28 21:01:14.950 ,3,0,0.,4.8,0.,4.8,0.,4.8,0.,4.8
1979-02-28 21:01:19.750 ,3,0,1.,4.8,0.,4.8,0.,4.8,0.,4.8
1979-02-28 21:01:24.540 ,4,0,0.,4.8,0.,4.8,0.,4.8,0.,4.8
1979-02-28 21:01:29.350 ,4,0,0.,4.8,0.,4.8,0.,4.8,0.,4.8
1979-02-28 21:01:34.150 ,4,0,0.,4.8,0.,4.8,0.,4.8,0.,4.8
1979-02-28 21:01:38.950 ,4,0,0.,4.8,0.,4.8,0.,4.8,0.,4.8
1979-02-28 21:01:43.750 ,4,0,0.,4.8,1.,4.8,0.,4.8,0.,4.8
1979-02-28 21:01:48.540 ,5,0,0.,4.8,0.,4.8,0.,4.8,0.,4.8
1979-02-28 21:01:53.350 ,5,0,1.,4.8,0.,4.8,0.,4.8,0.,4.8
1979-02-28 21:01:58.150 ,5,0,1.,4.8,0.,4.8,0.,4.8,0.,4.8
1979-02-28 21:02:02.950 ,5,0,0.,4.8,0.,4.8,0.,4.8,0.,4.8
1979-02-28 21:02:07.750 ,5,0,0.,4.8,0.,4.8,0.,4.8,0.,4.8
1979-02-28 21:02:12.550 ,6,0,0.,4.8,0.,4.8,0.,4.8,0.,4.8
1979-02-28 21:02:17.350 ,6,0,0.,4.8,0.,4.8,0.,4.8,0.,4.8
1979-02-28 21:02:22.150 ,6,0,0.,4.8,0.,4.8,0.,4.8,0.,4.8
1979-02-28 21:02:26.950 ,6,0,0.,4.8,1.,4.8,0.,4.8,0.,4.8
1979-02-28 21:02:31.750 ,6,0,0.,4.8,0.,4.8,0.,4.8,0.,4.8
1979-02-28 21:02:36.540 ,7,0,0.,4.8,0.,4.8,0.,4.8,0.,4.8
1979-02-28 21:02:41.350 ,7,0,0.,4.8,0.,4.8,1.,4.8,0.,4.8
1979-02-28 21:02:46.150 ,7,0,0.,4.8,0.,4.8,0.,4.8,0.,4.8
1979-02-28 21:02:50.950 ,7,0,0.,4.8,0.,4.8,0.,4.8,0.,4.8
1979-02-28 21:02:55.750 ,7,0,0.,4.8,1.,4.8,0.,4.8,0.,4.8
1979-02-28 21:03:00.550 ,7,0,0.,4.8,0.,4.8,0.,4.8,0.,4.8
1979-02-28 21:03:05.350 ,7,0,0.,4.8,0.,4.8,1.,4.8,0.,4.8
1979-02-28 21:03:10.150 ,7,0,0.,4.8,0.,4.8,0.,4.8,0.,4.8
1979-02-28 21:03:14.950 ,7,0,0.,4.8,0.,4.8,0.,4.8,0.,4.8
1979-02-28 21:03:19.750 ,7,0,0.,4.8,1.,4.8,0.,4.8,0.,4.8
1979-02-28 21:03:24.550 ,6,0,0.,4.8,0.,4.8,0.,4.8,0.,4.8
1979-02-28 21:03:29.350 ,6,0,0.,4.8,0.,4.8,0.,4.8,0.,4.8
1979-02-28 21:03:34.150 ,6,0,0.,4.8,0.,4.8,0.,4.8,0.,4.8
1979-02-28 21:03:38.950 ,6,0,0.,4.8,0.,4.8,1.,4.8,0.,4.8
1979-02-28 21:03:43.750 ,6,0,0.,4.8,0.,4.8,0.,4.8,0.,4.8
1979-02-28 21:03:48.540 ,5,0,0.,4.8,0.,4.8,0.,4.8,0.,4.8
1979-02-28 21:03:53.350 ,5,0,1.,4.8,0.,4.8,1.,4.8,0.,4.8
1979-02-28 21:03:58.150 ,5,0,0.,4.8,0.,4.8,0.,4.8,0.,4.8
1979-02-28 21:04:02.950 ,5,0,0.,4.8,0.,4.8,0.,4.8,0.,4.8
1979-02-28 21:04:07.750 ,5,0,0.,4.8,0.,4.8,0.,4.8,0.,4.8
1979-02-28 21:04:12.550 ,4,0,0.,4.8,0.,4.8,0.,4.8,0.,4.8
1979-02-28 21:04:17.350 ,4,0,0.,4.8,0.,4.8,0.,4.8,0.,4.8
1979-02-28 21:04:22.150 ,4,0,0.,4.8,0.,4.8,1.,4.8,0.,4.8
1979-02-28 21:04:26.950 ,4,0,0.,4.8,0.,4.8,0.,4.8,0.,4.8
1979-02-28 21:04:31.750 ,4,0,1.,4.8,0.,4.8,0.,4.8,0.,4.8
1979-02-28 21:04:36.550 ,3,0,0.,4.8,0.,4.8,0.,4.8,0.,4.8
1979-02-28 21:04:41.350 ,3,0,0.,4.8,0.,4.8,0.,4.8,0.,4.8
1979-02-28 21:04:46.150 ,3,0,1.,4.8,0.,4.8,0.,4.8,0.,4.8
1979-02-28 21:04:50.950 ,3,0,0.,4.8,0.,4.8,1.,4.8,0.,4.8
1979-02-28 21:04:55.750 ,3,0,1.,4.8,0.,4.8,0.,4.8,0.,4.8
1979-02-28 21:05:00.550 ,2,0,0.,4.8,0.,4.8,0.,4.8,0.,4.8
1979-02-28 21:05:05.350 ,2,0,0.,4.8,0.,4.8,0.,4.8,0.,4.8
1979-02-28 21:05:10.150 ,2,0,0.,4.8,0.,4.8,0.,4.8,0.,4.8
1979-02-28 21:05:14.950 ,2,0,0.,4.8,0.,4.8,0.,4.8,0.,4.8
1979-02-28 21:05:19.750 ,2,0,1.,4.8,0.,4.8,1.,4.8,0.,4.8
1979-02-28 21:05:24.550 ,1,0,0.,4.8,0.,4.8,0.,4.8,0.,4.8
1979-02-28 21:05:29.350 ,1,0,0.,4.8,1.,4.8,0.,4.8,0.,4.8
1979-02-28 21:05:34.150 ,1,0,0.,4.8,1.,4.8,1.,4.8,0.,4.8
1979-02-28 21:05:38.950 ,1,0,0.,4.8,0.,4.8,0.,4.8,0.,4.8
1979-02-28 21:05:43.750 ,1,0,0.,4.8,0.,4.8,0.,4.8,0.,4.8
1979-02-28 21:05:48.550 ,0,0,0.,4.8,0.,4.8,0.,4.8,0.,4.8
1979-02-28 21:05:53.350 ,0,0,1.,4.8,0.,4.8,0.,4.8,0.,4.8
1979-02-28 21:05:58.150 ,0,0,1.,4.8,0.,4.8,1.,4.8,0.,4.8
1979-02-28 21:06:02.950 ,0,0,0.,4.8,0.,4.8,0.,4.8,0.,4.8
1979-02-28 21:06:07.750 ,0,0,0.,4.8,0.,4.8,0.,4.8,0.,4.8
1979-02-28 21:06:12.550 ,0,0,0.,4.8,0.,4.8,1.,4.8,0.,4.8
1979-02-28 21:06:17.350 ,0,0,0.,4.8,0.,4.8,0.,4.8,0.,4.8
1979-02-28 21:06:22.150 ,0,0,0.,4.8,1.,4.8,1.,4.8,0.,4.8
1979-02-28 21:06:26.950 ,0,0,0.,4.8,0.,4.8,0.,4.8,0.,4.8
1979-02-28 21:06:31.750 ,0,0,0.,4.8,0.,4.8,0.,4.8,0.,4.8
1979-02-28 21:06:36.550 ,1,0,0.,4.8,0.,4.8,0.,4.8,0.,4.8
1979-02-28 21:06:41.350 ,1,0,0.,4.8,0.,4.8,0.,4.8,0.,4.8
1979-02-28 21:06:46.150 ,1,0,0.,4.8,0.,4.8,0.,4.8,0.,4.8
1979-02-28 21:06:50.950 ,1,0,0.,4.8,0.,4.8,0.,4.8,0.,4.8
1979-02-28 21:06:55.750 ,1,0,0.,4.8,0.,4.8,0.,4.8,0.,4.8
1979-02-28 21:07:00.550 ,2,0,0.,4.8,0.,4.8,0.,4.8,0.,4.8
1979-02-28 21:07:05.350 ,2,0,0.,4.8,0.,4.8,0.,4.8,0.,4.8
1979-02-28 21:07:10.150 ,2,0,0.,4.8,0.,4.8,0.,4.8,0.,4.8
1979-02-28 21:07:14.950 ,2,0,0.,4.8,0.,4.8,0.,4.8,0.,4.8
1979-02-28 21:07:19.750 ,2,0,0.,4.8,0.,4.8,0.,4.8,0.,4.8
1979-02-28 21:07:24.550 ,3,0,0.,4.8,0.,4.8,0.,4.8,0.,4.8
1979-02-28 21:07:29.350 ,3,0,0.,4.8,0.,4.8,0.,4.8,0.,4.8
1979-02-28 21:07:34.150 ,3,0,0.,4.8,0.,4.8,1.,4.8,0.,4.8
1979-02-28 21:07:38.950 ,3,0,1.,4.8,0.,4.8,0.,4.8,0.,4.8
1979-02-28 21:07:43.750 ,3,0,0.,4.8,0.,4.8,0.,4.8,0.,4.8
1979-02-28 21:07:48.550 ,4,0,0.,4.8,2.,4.8,0.,4.8,0.,4.8
1979-02-28 21:07:53.350 ,4,0,0.,4.8,0.,4.8,1.,4.8,0.,4.8
1979-02-28 21:07:58.150 ,4,0,0.,4.8,0.,4.8,0.,4.8,0.,4.8
1979-02-28 21:08:02.950 ,4,0,0.,4.8,0.,4.8,0.,4.8,0.,4.8
1979-02-28 21:08:07.750 ,4,0,0.,4.8,0.,4.8,0.,4.8,0.,4.8
1979-02-28 21:08:12.550 ,5,0,0.,4.8,0.,4.8,0.,4.8,0.,4.8
1979-02-28 21:08:17.350 ,5,0,1.,4.8,0.,4.8,0.,4.8,0.,4.8
1979-02-28 21:08:22.150 ,5,0,1.,4.8,0.,4.8,0.,4.8,1.,4.8
1979-02-28 21:08:26.950 ,5,0,0.,4.8,0.,4.8,0.,4.8,0.,4.8
1979-02-28 21:08:31.750 ,5,0,0.,4.8,0.,4.8,0.,4.8,0.,4.8
1979-02-28 21:08:36.540 ,6,0,0.,4.8,0.,4.8,1.,4.8,0.,4.8
1979-02-28 21:08:41.350 ,6,0,0.,4.8,0.,4.8,0.,4.8,0.,4.8
1979-02-28 21:08:46.150 ,6,0,0.,4.8,0.,4.8,0.,4.8,0.,4.8
1979-02-28 21:08:50.950 ,6,0,0.,4.8,0.,4.8,0.,4.8,0.,4.8
1979-02-28 21:08:55.740 ,6,0,1.,4.8,0.,4.8,1.,4.8,0.,4.8
1979-02-28 21:09:00.540 ,7,0,0.,4.8,0.,4.8,0.,4.8,0.,4.8
1979-02-28 21:09:05.350 ,7,0,0.,4.8,0.,4.8,0.,4.8,0.,4.8
1979-02-28 21:09:10.150 ,7,0,0.,4.8,0.,4.8,1.,4.8,0.,4.8
1979-02-28 21:09:14.950 ,7,0,0.,4.8,0.,4.8,1.,4.8,0.,4.8
1979-02-28 21:09:19.740 ,7,0,0.,4.8,0.,4.8,0.,4.8,0.,4.8
1979-02-28 21:09:24.540 ,7,0,1.,4.8,0.,4.8,0.,4.8,0.,4.8
1979-02-28 21:09:29.350 ,7,0,0.,4.8,0.,4.8,0.,4.8,0.,4.8
1979-02-28 21:09:34.150 ,7,0,0.,4.8,0.,4.8,0.,4.8,0.,4.8
1979-02-28 21:09:38.950 ,7,0,0.,4.8,0.,4.8,0.,4.8,0.,4.8
1979-02-28 21:09:43.740 ,7,0,1.,4.8,0.,4.8,1.,4.8,0.,4.8
1979-02-28 21:09:48.540 ,6,0,0.,4.8,0.,4.8,0.,4.8,0.,4.8
1979-02-28 21:09:53.350 ,6,0,0.,4.8,0.,4.8,0.,4.8,0.,4.8
1979-02-28 21:09:58.150 ,6,0,0.,4.8,0.,4.8,1.,4.8,0.,4.8
1979-02-28 21:10:02.950 ,6,0,3.,4.8,0.,4.8,0.,4.8,0.,4.8
1979-02-28 21:10:07.740 ,6,0,1.,4.8,0.,4.8,1.,4.8,0.,4.8
1979-02-28 21:10:12.540 ,5,0,1.,4.8,0.,4.8,0.,4.8,0.,4.8
1979-02-28 21:10:17.350 ,5,0,0.,4.8,0.,4.8,0.,4.8,0.,4.8
1979-02-28 21:10:22.150 ,5,0,1.,4.8,0.,4.8,0.,4.8,0.,4.8
1979-02-28 21:10:26.950 ,5,0,0.,4.8,0.,4.8,0.,4.8,0.,4.8
1979-02-28 21:10:31.740 ,5,0,0.,4.8,0.,4.8,0.,4.8,0.,4.8
1979-02-28 21:10:36.540 ,4,0,0.,4.8,0.,4.8,0.,4.8,0.,4.8
1979-02-28 21:10:41.350 ,4,0,1.,4.8,0.,4.8,0.,4.8,0.,4.8
1979-02-28 21:10:46.150 ,4,0,0.,4.8,0.,4.8,0.,4.8,0.,4.8
1979-02-28 21:10:50.950 ,4,0,0.,4.8,0.,4.8,0.,4.8,0.,4.8
1979-02-28 21:10:55.740 ,4,0,1.,4.8,0.,4.8,0.,4.8,0.,4.8
1979-02-28 21:11:00.540 ,3,0,0.,4.8,1.,4.8,0.,4.8,0.,4.8
1979-02-28 21:11:05.350 ,3,0,0.,4.8,0.,4.8,0.,4.8,0.,4.8
1979-02-28 21:11:10.150 ,3,0,1.,4.8,0.,4.8,1.,4.8,0.,4.8
1979-02-28 21:11:14.950 ,3,0,1.,4.8,1.,4.8,0.,4.8,0.,4.8
1979-02-28 21:11:19.740 ,3,0,0.,4.8,0.,4.8,0.,4.8,0.,4.8
1979-02-28 21:11:24.540 ,2,0,3.,4.8,0.,4.8,2.,4.8,0.,4.8
1979-02-28 21:11:29.350 ,2,0,1.,4.8,0.,4.8,0.,4.8,0.,4.8
1979-02-28 21:11:34.150 ,2,0,0.,4.8,0.,4.8,0.,4.8,0.,4.8
1979-02-28 21:11:38.950 ,2,0,0.,4.8,0.,4.8,0.,4.8,0.,4.8
1979-02-28 21:11:43.740 ,2,0,0.,4.8,0.,4.8,0.,4.8,0.,4.8
1979-02-28 21:11:48.540 ,1,0,0.,4.8,1.,4.8,0.,4.8,0.,4.8
1979-02-28 21:11:53.350 ,1,0,0.,4.8,0.,4.8,0.,4.8,0.,4.8
1979-02-28 21:11:58.150 ,1,0,1.,4.8,0.,4.8,0.,4.8,0.,4.8
1979-02-28 21:12:02.950 ,1,0,0.,4.8,0.,4.8,0.,4.8,0.,4.8
1979-02-28 21:12:07.740 ,1,0,2.,4.8,0.,4.8,0.,4.8,0.,4.8
1979-02-28 21:12:12.540 ,0,0,1.,4.8,0.,4.8,0.,4.8,0.,4.8
1979-02-28 21:12:17.350 ,0,0,1.,4.8,0.,4.8,1.,4.8,0.,4.8
1979-02-28 21:12:22.150 ,0,0,0.,4.8,0.,4.8,0.,4.8,0.,4.8
1979-02-28 21:12:26.950 ,0,0,0.,4.8,0.,4.8,0.,4.8,0.,4.8
1979-02-28 21:12:31.740 ,0,0,1.,4.8,0.,4.8,0.,4.8,0.,4.8
1979-02-28 21:12:36.540 ,0,0,1.,4.8,0.,4.8,1.,4.8,0.,4.8
1979-02-28 21:12:41.350 ,0,0,0.,4.8,0.,4.8,0.,4.8,0.,4.8
1979-02-28 21:12:46.150 ,0,0,0.,4.8,0.,4.8,0.,4.8,0.,4.8
1979-02-28 21:12:50.950 ,0,0,1.,4.8,0.,4.8,1.,4.8,0.,4.8
1979-02-28 21:12:55.740 ,0,0,0.,4.8,0.,4.8,1.,4.8,0.,4.8
1979-02-28 21:13:00.540 ,1,0,0.,4.8,0.,4.8,0.,4.8,0.,4.8
1979-02-28 21:13:05.350 ,1,0,0.,4.8,0.,4.8,0.,4.8,0.,4.8
1979-02-28 21:13:10.150 ,1,0,0.,4.8,0.,4.8,0.,4.8,0.,4.8
1979-02-28 21:13:14.950 ,1,0,0.,4.8,0.,4.8,0.,4.8,0.,4.8
1979-02-28 21:13:19.740 ,1,0,0.,4.8,0.,4.8,0.,4.8,0.,4.8
1979-02-28 21:13:24.540 ,2,0,0.,4.8,0.,4.8,0.,4.8,0.,4.8
1979-02-28 21:13:29.350 ,2,0,0.,4.8,0.,4.8,0.,4.8,0.,4.8
1979-02-28 21:13:34.150 ,2,0,0.,4.8,0.,4.8,2.,4.8,0.,4.8
1979-02-28 21:13:38.950 ,2,0,1.,4.8,0.,4.8,0.,4.8,0.,4.8
1979-02-28 21:13:43.740 ,2,0,0.,4.8,0.,4.8,0.,4.8,0.,4.8
1979-02-28 21:13:48.540 ,3,0,0.,4.8,1.,4.8,0.,4.8,0.,4.8
1979-02-28 21:13:53.350 ,3,0,1.,4.8,0.,4.8,0.,4.8,0.,4.8
1979-02-28 21:13:58.150 ,3,0,0.,4.8,0.,4.8,0.,4.8,0.,4.8
1979-02-28 21:14:02.950 ,3,0,0.,4.8,0.,4.8,0.,4.8,0.,4.8
1979-02-28 21:14:07.740 ,3,0,0.,4.8,0.,4.8,0.,4.8,0.,4.8
1979-02-28 21:14:12.540 ,4,0,0.,4.8,0.,4.8,0.,4.8,1.,4.8
1979-02-28 21:14:17.350 ,4,0,0.,4.8,0.,4.8,0.,4.8,0.,4.8
1979-02-28 21:14:22.150 ,4,0,0.,4.8,0.,4.8,0.,4.8,0.,4.8
1979-02-28 21:14:26.950 ,4,0,0.,4.8,0.,4.8,1.,4.8,0.,4.8
1979-02-28 21:14:31.740 ,4,0,0.,4.8,0.,4.8,0.,4.8,0.,4.8
1979-02-28 21:14:36.540 ,5,0,0.,4.8,0.,4.8,0.,4.8,0.,4.8
1979-02-28 21:14:41.350 ,5,0,0.,4.8,0.,4.8,1.,4.8,0.,4.8
1979-02-28 21:14:46.150 ,5,0,0.,4.8,0.,4.8,1.,4.8,0.,4.8
1979-02-28 21:14:50.950 ,5,0,0.,4.8,0.,4.8,0.,4.8,0.,4.8
1979-02-28 21:14:55.740 ,5,0,1.,4.8,1.,4.8,0.,4.8,0.,4.8
1979-02-28 21:15:00.540 ,6,0,0.,4.8,0.,4.8,0.,4.8,0.,4.8
1979-02-28 21:15:05.350 ,6,0,0.,4.8,1.,4.8,0.,4.8,0.,4.8
1979-02-28 21:15:10.150 ,6,0,0.,4.8,0.,4.8,0.,4.8,0.,4.8
1979-02-28 21:15:14.950 ,6,0,0.,4.8,0.,4.8,0.,4.8,0.,4.8
1979-02-28 21:15:19.740 ,6,0,0.,4.8,0.,4.8,0.,4.8,0.,4.8
1979-02-28 21:15:24.540 ,7,0,0.,4.8,0.,4.8,0.,4.8,0.,4.8
1979-02-28 21:15:29.350 ,7,0,0.,4.8,0.,4.8,0.,4.8,0.,4.8
1979-02-28 21:15:34.150 ,7,0,0.,4.8,0.,4.8,0.,4.8,0.,4.8
1979-02-28 21:15:38.950 ,7,0,0.,4.8,0.,4.8,1.,4.8,0.,4.8
1979-02-28 21:15:43.740 ,7,0,0.,4.8,0.,4.8,1.,4.8,0.,4.8
1979-02-28 21:15:48.540 ,7,0,0.,4.8,0.,4.8,1.,4.8,0.,4.8
1979-02-28 21:15:53.350 ,7,0,0.,4.8,0.,4.8,0.,4.8,0.,4.8
1979-02-28 21:15:58.150 ,7,0,0.,4.8,0.,4.8,0.,4.8,0.,4.8
1979-02-28 21:16:02.950 ,7,0,0.,4.8,0.,4.8,2.,4.8,0.,4.8
1979-02-28 21:16:07.740 ,7,0,2.,4.8,0.,4.8,0.,4.8,0.,4.8
1979-02-28 21:16:12.540 ,6,0,1.,4.8,0.,4.8,0.,4.8,0.,4.8
1979-02-28 21:16:17.350 ,6,0,0.,4.8,0.,4.8,0.,4.8,0.,4.8
1979-02-28 21:16:22.150 ,6,0,1.,4.8,0.,4.8,0.,4.8,0.,4.8
1979-02-28 21:16:26.950 ,6,0,1.,4.8,1.,4.8,2.,4.8,0.,4.8
1979-02-28 21:16:31.740 ,6,0,0.,4.8,0.,4.8,1.,4.8,0.,4.8
1979-02-28 21:16:36.540 ,5,0,0.,4.8,0.,4.8,0.,4.8,0.,4.8
1979-02-28 21:16:41.350 ,5,0,0.,4.8,0.,4.8,0.,4.8,0.,4.8
1979-02-28 21:16:46.150 ,5,0,1.,4.8,0.,4.8,1.,4.8,0.,4.8
1979-02-28 21:16:50.950 ,5,0,0.,4.8,0.,4.8,0.,4.8,0.,4.8
1979-02-28 21:16:55.740 ,5,0,0.,4.8,0.,4.8,0.,4.8,0.,4.8
1979-02-28 21:17:00.540 ,4,0,0.,4.8,0.,4.8,0.,4.8,0.,4.8
1979-02-28 21:17:05.340 ,4,0,2.,4.8,0.,4.8,0.,4.8,0.,4.8
1979-02-28 21:17:10.150 ,4,0,1.,4.8,0.,4.8,0.,4.8,0.,4.8
1979-02-28 21:17:14.950 ,4,0,0.,4.8,0.,4.8,0.,4.8,0.,4.8
1979-02-28 21:17:19.740 ,4,0,1.,4.8,0.,4.8,2.,4.8,0.,4.8
1979-02-28 21:17:24.540 ,3,0,0.,4.8,0.,4.8,0.,4.8,0.,4.8
1979-02-28 21:17:29.340 ,3,0,0.,4.8,0.,4.8,0.,4.8,1.,4.8
1979-02-28 21:17:34.140 ,3,0,1.,4.8,0.,4.8,0.,4.8,0.,4.8
1979-02-28 21:17:38.940 ,3,0,0.,4.8,0.,4.8,0.,4.8,0.,4.8
1979-02-28 21:17:43.740 ,3,0,0.,4.8,0.,4.8,0.,4.8,0.,4.8
1979-02-28 21:17:48.540 ,2,0,1.,4.8,0.,4.8,0.,4.8,0.,4.8
1979-02-28 21:17:53.340 ,2,0,0.,4.8,0.,4.8,0.,4.8,0.,4.8
1979-02-28 21:17:58.140 ,2,0,0.,4.8,0.,4.8,0.,4.8,0.,4.8
1979-02-28 21:18:02.940 ,2,0,0.,4.8,0.,4.8,1.,4.8,0.,4.8
1979-02-28 21:18:07.740 ,2,0,1.,4.8,0.,4.8,0.,4.8,0.,4.8
1979-02-28 21:18:12.540 ,1,0,1.,4.8,0.,4.8,0.,4.8,0.,4.8
1979-02-28 21:18:17.340 ,1,0,0.,4.8,0.,4.8,0.,4.8,0.,4.8
1979-02-28 21:18:22.140 ,1,0,0.,4.8,0.,4.8,1.,4.8,1.,4.8
1979-02-28 21:18:26.940 ,1,0,0.,4.8,0.,4.8,0.,4.8,0.,4.8
1979-02-28 21:18:31.740 ,1,0,1.,4.8,0.,4.8,0.,4.8,0.,4.8
1979-02-28 21:18:36.540 ,0,0,0.,4.8,0.,4.8,0.,4.8,1.,4.8
1979-02-28 21:18:41.340 ,0,0,0.,4.8,0.,4.8,0.,4.8,0.,4.8
1979-02-28 21:18:46.140 ,0,0,1.,4.8,0.,4.8,0.,4.8,0.,4.8
1979-02-28 21:18:50.940 ,0,0,0.,4.8,0.,4.8,1.,4.8,0.,4.8
1979-02-28 21:18:55.740 ,0,0,0.,4.8,0.,4.8,0.,4.8,0.,4.8
1979-02-28 21:19:00.540 ,0,0,0.,4.8,0.,4.8,0.,4.8,0.,4.8
1979-02-28 21:19:05.340 ,0,0,0.,4.8,0.,4.8,0.,4.8,0.,4.8
1979-02-28 21:19:10.140 ,0,0,1.,4.8,0.,4.8,0.,4.8,0.,4.8
1979-02-28 21:19:14.940 ,0,0,0.,4.8,0.,4.8,1.,4.8,0.,4.8
1979-02-28 21:19:19.740 ,0,0,1.,4.8,0.,4.8,1.,4.8,0.,4.8
1979-02-28 21:19:24.540 ,1,0,0.,4.8,0.,4.8,0.,4.8,0.,4.8
1979-02-28 21:19:29.340 ,1,0,0.,4.8,0.,4.8,0.,4.8,0.,4.8
1979-02-28 21:19:34.140 ,1,0,0.,4.8,0.,4.8,0.,4.8,0.,4.8
1979-02-28 21:19:38.940 ,1,0,1.,4.8,0.,4.8,0.,4.8,0.,4.8
1979-02-28 21:19:43.740 ,1,0,0.,4.8,0.,4.8,0.,4.8,0.,4.8
1979-02-28 21:19:48.540 ,2,0,0.,4.8,0.,4.8,1.,4.8,0.,4.8
1979-02-28 21:19:53.340 ,2,0,0.,4.8,0.,4.8,1.,4.8,0.,4.8
1979-02-28 21:19:58.140 ,2,0,0.,4.8,1.,4.8,0.,4.8,0.,4.8
1979-02-28 21:20:02.940 ,2,0,0.,4.8,1.,4.8,0.,4.8,0.,4.8
1979-02-28 21:20:07.740 ,2,0,0.,4.8,0.,4.8,1.,4.8,0.,4.8
1979-02-28 21:20:12.540 ,3,0,1.,4.8,0.,4.8,1.,4.8,0.,4.8
1979-02-28 21:20:17.340 ,3,0,0.,4.8,0.,4.8,0.,4.8,0.,4.8
1979-02-28 21:20:22.140 ,3,0,1.,4.8,0.,4.8,0.,4.8,0.,4.8
1979-02-28 21:20:26.940 ,3,0,0.,4.8,0.,4.8,0.,4.8,0.,4.8
1979-02-28 21:20:31.740 ,3,0,0.,4.8,0.,4.8,0.,4.8,0.,4.8
1979-02-28 21:20:36.540 ,4,0,0.,4.8,0.,4.8,0.,4.8,0.,4.8
1979-02-28 21:20:41.340 ,4,0,0.,4.8,0.,4.8,0.,4.8,0.,4.8
1979-02-28 21:20:46.140 ,4,0,0.,4.8,0.,4.8,0.,4.8,0.,4.8
1979-02-28 21:20:50.940 ,4,0,0.,4.8,0.,4.8,1.,4.8,0.,4.8
1979-02-28 21:20:55.740 ,4,0,0.,4.8,0.,4.8,0.,4.8,0.,4.8
1979-02-28 21:21:00.540 ,5,0,0.,4.8,0.,4.8,0.,4.8,0.,4.8
1979-02-28 21:21:05.340 ,5,0,0.,4.8,0.,4.8,0.,4.8,0.,4.8
1979-02-28 21:21:10.140 ,5,0,0.,4.8,0.,4.8,0.,4.8,0.,4.8
1979-02-28 21:21:14.940 ,5,0,0.,4.8,0.,4.8,0.,4.8,0.,4.8
1979-02-28 21:21:19.740 ,5,0,0.,4.8,0.,4.8,0.,4.8,0.,4.8
1979-02-28 21:21:24.540 ,6,0,0.,4.8,0.,4.8,0.,4.8,0.,4.8
1979-02-28 21:21:29.340 ,6,0,0.,4.8,0.,4.8,0.,4.8,0.,4.8
1979-02-28 21:21:34.140 ,6,0,0.,4.8,0.,4.8,0.,4.8,0.,4.8
1979-02-28 21:21:38.940 ,6,0,0.,4.8,0.,4.8,0.,4.8,0.,4.8
1979-02-28 21:21:43.740 ,6,0,0.,4.8,0.,4.8,0.,4.8,0.,4.8
1979-02-28 21:21:48.540 ,7,0,0.,4.8,0.,4.8,0.,4.8,0.,4.8
1979-02-28 21:21:53.340 ,7,0,0.,4.8,0.,4.8,0.,4.8,0.,4.8
1979-02-28 21:21:58.140 ,7,0,0.,4.8,0.,4.8,0.,4.8,0.,4.8
1979-02-28 21:22:02.940 ,7,0,1.,4.8,0.,4.8,1.,4.8,0.,4.8
1979-02-28 21:22:07.740 ,7,0,0.,4.8,0.,4.8,0.,4.8,0.,4.8
1979-02-28 21:22:12.540 ,7,0,0.,4.8,0.,4.8,0.,4.8,0.,4.8
1979-02-28 21:22:17.340 ,7,0,0.,4.8,0.,4.8,0.,4.8,0.,4.8
1979-02-28 21:22:22.140 ,7,0,0.,4.8,0.,4.8,1.,4.8,0.,4.8
1979-02-28 21:22:26.940 ,7,0,0.,4.8,0.,4.8,0.,4.8,0.,4.8
1979-02-28 21:22:31.740 ,7,0,0.,4.8,0.,4.8,1.,4.8,0.,4.8
1979-02-28 21:22:36.540 ,6,0,0.,4.8,0.,4.8,1.,4.8,0.,4.8
1979-02-28 21:22:41.340 ,6,0,0.,4.8,0.,4.8,1.,4.8,0.,4.8
1979-02-28 21:22:46.140 ,6,0,0.,4.8,0.,4.8,0.,4.8,0.,4.8
1979-02-28 21:22:50.940 ,6,0,1.,4.8,0.,4.8,0.,4.8,0.,4.8
1979-02-28 21:22:55.740 ,6,0,0.,4.8,1.,4.8,0.,4.8,0.,4.8
1979-02-28 21:23:00.540 ,5,0,0.,4.8,0.,4.8,0.,4.8,0.,4.8
1979-02-28 21:23:05.340 ,5,0,0.,4.8,1.,4.8,0.,4.8,0.,4.8
1979-02-28 21:23:10.140 ,5,0,0.,4.8,0.,4.8,1.,4.8,0.,4.8
1979-02-28 21:23:14.940 ,5,0,0.,4.8,0.,4.8,0.,4.8,0.,4.8
1979-02-28 21:23:19.740 ,5,0,0.,4.8,0.,4.8,0.,4.8,0.,4.8
1979-02-28 21:23:24.540 ,4,0,1.,4.8,0.,4.8,0.,4.8,0.,4.8
1979-02-28 21:23:29.340 ,4,0,1.,4.8,0.,4.8,0.,4.8,0.,4.8
1979-02-28 21:23:34.140 ,4,0,0.,4.8,0.,4.8,1.,4.8,0.,4.8
1979-02-28 21:23:38.940 ,4,0,1.,4.8,0.,4.8,0.,4.8,0.,4.8
1979-02-28 21:23:43.740 ,4,0,0.,4.8,0.,4.8,1.,4.8,0.,4.8
1979-02-28 21:23:48.540 ,3,0,1.,4.8,0.,4.8,1.,4.8,0.,4.8
1979-02-28 21:23:53.340 ,3,0,0.,4.8,0.,4.8,0.,4.8,0.,4.8
1979-02-28 21:23:58.140 ,3,0,0.,4.8,0.,4.8,0.,4.8,0.,4.8
1979-02-28 21:24:02.940 ,3,0,1.,4.8,0.,4.8,1.,4.8,0.,4.8
1979-02-28 21:24:07.740 ,3,0,0.,4.8,0.,4.8,0.,4.8,0.,4.8
1979-02-28 21:24:12.540 ,2,0,0.,4.8,0.,4.8,0.,4.8,1.,4.8
1979-02-28 21:24:17.340 ,2,0,0.,4.8,0.,4.8,0.,4.8,0.,4.8
1979-02-28 21:24:22.140 ,2,0,0.,4.8,0.,4.8,0.,4.8,0.,4.8
1979-02-28 21:24:26.940 ,2,0,1.,4.8,0.,4.8,0.,4.8,0.,4.8
1979-02-28 21:24:31.740 ,2,0,0.,4.8,0.,4.8,0.,4.8,0.,4.8
1979-02-28 21:24:36.540 ,1,0,0.,4.8,0.,4.8,0.,4.8,1.,4.8
1979-02-28 21:24:41.340 ,1,0,0.,4.8,0.,4.8,0.,4.8,0.,4.8
1979-02-28 21:24:46.140 ,1,0,0.,4.8,0.,4.8,0.,4.8,0.,4.8
1979-02-28 21:24:50.940 ,1,0,0.,4.8,0.,4.8,0.,4.8,0.,4.8
1979-02-28 21:24:55.740 ,1,0,1.,4.8,0.,4.8,0.,4.8,0.,4.8
1979-02-28 21:25:00.540 ,0,0,0.,4.8,0.,4.8,1.,4.8,0.,4.8
1979-02-28 21:25:05.340 ,0,0,0.,4.8,0.,4.8,0.,4.8,0.,4.8
1979-02-28 21:25:10.140 ,0,0,1.,4.8,0.,4.8,0.,4.8,0.,4.8
1979-02-28 21:25:14.940 ,0,0,2.,4.8,1.,4.8,0.,4.8,0.,4.8
1979-02-28 21:25:19.740 ,0,0,1.,4.8,0.,4.8,0.,4.8,0.,4.8
1979-02-28 21:25:24.540 ,0,0,1.,4.8,0.,4.8,0.,4.8,1.,4.8
1979-02-28 21:25:29.340 ,0,0,0.,4.8,0.,4.8,0.,4.8,0.,4.8
1979-02-28 21:25:34.140 ,0,0,0.,4.8,0.,4.8,0.,4.8,0.,4.8
1979-02-28 21:25:38.940 ,0,0,0.,4.8,0.,4.8,0.,4.8,0.,4.8
1979-02-28 21:25:43.740 ,0,0,0.,4.8,0.,4.8,0.,4.8,0.,4.8
1979-02-28 21:25:48.540 ,1,0,0.,4.8,0.,4.8,0.,4.8,0.,4.8
1979-02-28 21:25:53.340 ,1,0,0.,4.8,0.,4.8,0.,4.8,0.,4.8
1979-02-28 21:25:58.140 ,1,0,0.,4.8,0.,4.8,0.,4.8,0.,4.8
1979-02-28 21:26:02.940 ,1,0,0.,4.8,0.,4.8,0.,4.8,0.,4.8
1979-02-28 21:26:07.740 ,1,0,1.,4.8,0.,4.8,0.,4.8,0.,4.8
1979-02-28 21:26:12.540 ,2,0,0.,4.8,1.,4.8,0.,4.8,0.,4.8
1979-02-28 21:26:17.340 ,2,0,0.,4.8,0.,4.8,0.,4.8,0.,4.8
1979-02-28 21:26:22.140 ,2,0,1.,4.8,1.,4.8,0.,4.8,0.,4.8
1979-02-28 21:26:26.940 ,2,0,0.,4.8,0.,4.8,0.,4.8,0.,4.8
1979-02-28 21:26:31.740 ,2,0,1.,4.8,0.,4.8,1.,4.8,1.,4.8
1979-02-28 21:26:36.540 ,3,0,0.,4.8,0.,4.8,0.,4.8,0.,4.8
1979-02-28 21:26:41.340 ,3,0,0.,4.8,0.,4.8,0.,4.8,0.,4.8
1979-02-28 21:26:46.140 ,3,0,0.,4.8,0.,4.8,0.,4.8,0.,4.8
1979-02-28 21:26:50.940 ,3,0,0.,4.8,0.,4.8,0.,4.8,0.,4.8
1979-02-28 21:26:55.740 ,3,0,0.,4.8,0.,4.8,0.,4.8,0.,4.8
1979-02-28 21:27:00.540 ,4,0,0.,4.8,0.,4.8,0.,4.8,0.,4.8
1979-02-28 21:27:05.340 ,4,0,1.,4.8,0.,4.8,0.,4.8,0.,4.8
1979-02-28 21:27:10.140 ,4,0,2.,4.8,0.,4.8,0.,4.8,0.,4.8
1979-02-28 21:27:14.940 ,4,0,1.,4.8,0.,4.8,0.,4.8,0.,4.8
1979-02-28 21:27:19.740 ,4,0,0.,4.8,0.,4.8,1.,4.8,0.,4.8
1979-02-28 21:27:24.540 ,5,0,0.,4.8,1.,4.8,0.,4.8,0.,4.8
1979-02-28 21:27:29.340 ,5,0,0.,4.8,0.,4.8,0.,4.8,0.,4.8
1979-02-28 21:27:34.140 ,5,0,1.,4.8,0.,4.8,0.,4.8,0.,4.8
1979-02-28 21:27:38.940 ,5,0,0.,4.8,0.,4.8,0.,4.8,0.,4.8
1979-02-28 21:27:43.740 ,5,0,1.,4.8,0.,4.8,0.,4.8,0.,4.8
1979-02-28 21:27:48.540 ,6,0,0.,4.8,1.,4.8,0.,4.8,0.,4.8
1979-02-28 21:27:53.340 ,6,0,1.,4.8,0.,4.8,0.,4.8,0.,4.8
1979-02-28 21:27:58.140 ,6,0,1.,4.8,0.,4.8,0.,4.8,0.,4.8
1979-02-28 21:28:02.940 ,6,0,0.,4.8,0.,4.8,0.,4.8,0.,4.8
1979-02-28 21:28:07.740 ,6,0,0.,4.8,0.,4.8,0.,4.8,0.,4.8
1979-02-28 21:28:12.540 ,7,0,1.,4.8,0.,4.8,0.,4.8,0.,4.8
1979-02-28 21:28:17.340 ,7,0,0.,4.8,0.,4.8,1.,4.8,0.,4.8
1979-02-28 21:28:22.140 ,7,0,1.,4.8,0.,4.8,0.,4.8,0.,4.8
1979-02-28 21:28:26.940 ,7,0,0.,4.8,1.,4.8,0.,4.8,0.,4.8
1979-02-28 21:28:31.740 ,7,0,0.,4.8,1.,4.8,1.,4.8,0.,4.8
1979-02-28 21:28:36.540 ,7,0,0.,4.8,0.,4.8,0.,4.8,0.,4.8
1979-02-28 21:28:41.340 ,7,0,0.,4.8,0.,4.8,1.,4.8,0.,4.8
1979-02-28 21:28:46.140 ,7,0,1.,4.8,0.,4.8,0.,4.8,0.,4.8
1979-02-28 21:28:50.940 ,7,0,0.,4.8,0.,4.8,0.,4.8,0.,4.8
1979-02-28 21:28:55.740 ,7,0,0.,4.8,0.,4.8,0.,4.8,0.,4.8
1979-02-28 21:29:00.540 ,6,0,1.,4.8,0.,4.8,0.,4.8,0.,4.8
1979-02-28 21:29:05.340 ,6,0,0.,4.8,0.,4.8,0.,4.8,0.,4.8
1979-02-28 21:29:10.140 ,6,0,0.,4.8,0.,4.8,1.,4.8,0.,4.8
1979-02-28 21:29:14.940 ,6,0,1.,4.8,0.,4.8,0.,4.8,0.,4.8
1979-02-28 21:29:19.740 ,6,0,1.,4.8,0.,4.8,0.,4.8,0.,4.8
1979-02-28 21:29:24.540 ,5,0,3.,4.8,0.,4.8,1.,4.8,0.,4.8
1979-02-28 21:29:29.340 ,5,0,1.,4.8,0.,4.8,1.,4.8,0.,4.8
1979-02-28 21:29:34.140 ,5,0,0.,4.8,0.,4.8,0.,4.8,0.,4.8
1979-02-28 21:29:38.940 ,5,0,1.,4.8,1.,4.8,0.,4.8,0.,4.8
1979-02-28 21:29:43.740 ,5,0,0.,4.8,0.,4.8,0.,4.8,0.,4.8
1979-02-28 21:29:48.540 ,4,0,2.,4.8,0.,4.8,0.,4.8,0.,4.8
1979-02-28 21:29:53.340 ,4,0,0.,4.8,1.,4.8,0.,4.8,0.,4.8
1979-02-28 21:29:58.140 ,4,0,0.,4.8,0.,4.8,0.,4.8,0.,4.8
1979-02-28 21:30:02.940 ,4,0,0.,4.8,0.,4.8,0.,4.8,0.,4.8
1979-02-28 21:30:07.740 ,4,0,1.,4.8,1.,4.8,1.,4.8,0.,4.8
1979-02-28 21:30:12.540 ,3,0,0.,4.8,0.,4.8,0.,4.8,0.,4.8
1979-02-28 21:30:17.340 ,3,0,1.,4.8,0.,4.8,1.,4.8,0.,4.8
1979-02-28 21:30:22.140 ,3,0,1.,4.8,0.,4.8,0.,4.8,0.,4.8
1979-02-28 21:30:26.940 ,3,0,1.,4.8,0.,4.8,0.,4.8,0.,4.8
1979-02-28 21:30:31.740 ,3,0,0.,4.8,0.,4.8,1.,4.8,0.,4.8
1979-02-28 21:30:36.540 ,2,0,1.,4.8,0.,4.8,0.,4.8,0.,4.8
1979-02-28 21:30:41.340 ,2,0,0.,4.8,0.,4.8,0.,4.8,0.,4.8
1979-02-28 21:30:46.140 ,2,0,0.,4.8,0.,4.8,0.,4.8,1.,4.8
1979-02-28 21:30:50.940 ,2,0,0.,4.8,0.,4.8,2.,4.8,0.,4.8
1979-02-28 21:30:55.740 ,2,0,0.,4.8,2.,4.8,0.,4.8,0.,4.8
1979-02-28 21:31:00.540 ,1,0,1.,4.8,0.,4.8,2.,4.8,0.,4.8
1979-02-28 21:31:05.340 ,1,0,2.,4.8,0.,4.8,0.,4.8,0.,4.8
1979-02-28 21:31:10.140 ,1,0,0.,4.8,0.,4.8,0.,4.8,0.,4.8
1979-02-28 21:31:14.940 ,1,0,0.,4.8,0.,4.8,0.,4.8,0.,4.8
1979-02-28 21:31:19.740 ,1,0,0.,4.8,0.,4.8,0.,4.8,0.,4.8
1979-02-28 21:31:24.540 ,0,0,0.,4.8,0.,4.8,0.,4.8,0.,4.8
1979-02-28 21:31:29.340 ,0,0,0.,4.8,0.,4.8,0.,4.8,0.,4.8
1979-02-28 21:31:34.140 ,0,0,2.,4.8,0.,4.8,0.,4.8,0.,4.8
1979-02-28 21:31:38.940 ,0,0,1.,4.8,0.,4.8,1.,4.8,1.,4.8
1979-02-28 21:31:43.740 ,0,0,0.,4.8,0.,4.8,0.,4.8,0.,4.8
1979-02-28 21:31:48.540 ,0,0,0.,4.8,0.,4.8,1.,4.8,0.,4.8
1979-02-28 21:31:53.340 ,0,0,0.,4.8,0.,4.8,0.,4.8,0.,4.8
1979-02-28 21:31:58.140 ,0,0,0.,4.8,0.,4.8,0.,4.8,0.,4.8
1979-02-28 21:32:02.940 ,0,0,0.,4.8,0.,4.8,0.,4.8,0.,4.8
1979-02-28 21:32:07.740 ,0,0,0.,4.8,0.,4.8,1.,4.8,0.,4.8
1979-02-28 21:32:12.540 ,1,0,1.,4.8,1.,4.8,1.,4.8,0.,4.8
1979-02-28 21:32:17.340 ,1,0,0.,4.8,0.,4.8,0.,4.8,1.,4.8
1979-02-28 21:32:22.140 ,1,0,1.,4.8,0.,4.8,0.,4.8,0.,4.8
1979-02-28 21:32:26.940 ,1,0,0.,4.8,0.,4.8,1.,4.8,0.,4.8
1979-02-28 21:32:31.740 ,1,0,0.,4.8,0.,4.8,0.,4.8,0.,4.8
1979-02-28 21:32:36.540 ,2,0,0.,4.8,0.,4.8,0.,4.8,0.,4.8
1979-02-28 21:32:41.340 ,2,0,0.,4.8,0.,4.8,0.,4.8,0.,4.8
1979-02-28 21:32:46.140 ,2,0,0.,4.8,0.,4.8,0.,4.8,0.,4.8
1979-02-28 21:32:50.940 ,2,0,0.,4.8,0.,4.8,1.,4.8,0.,4.8
1979-02-28 21:32:55.740 ,2,0,0.,4.8,0.,4.8,0.,4.8,0.,4.8
1979-02-28 21:33:00.540 ,3,0,0.,4.8,0.,4.8,0.,4.8,0.,4.8
1979-02-28 21:33:05.340 ,3,0,0.,4.8,0.,4.8,0.,4.8,0.,4.8